Regional Weather Roundup
Issued by NWS

Home | Current Version | Previous Version | Graphics & Text | Print | Product List | Glossary On
Versions: 1 2 3 4 5 6 7 8 9 10 11 12 13 14 15 16 17 18 19 20 21 22 23 24 25 26 27 28 29 30 31 32 33 34 35 36 37 38 39 40 41 42 43 44 45 46 47 48 49 50
000
ASUS43 KBIS 300202
RWRND

NORTH DAKOTA REGIONAL WEATHER ROUNDUP
NATIONAL WEATHER SERVICE BISMARCK ND
900 PM CDT SAT APR 29 2017

NOTE: "FAIR" INDICATES FEW OR NO CLOUDS BELOW 12,000 FEET WITH NO
SIGNIFICANT WEATHER AND/OR OBSTRUCTIONS TO VISIBILITY.


NDZ001>003-009>011-017-300300-
NORTHWEST NORTH DAKOTA

CITY           SKY/WX    TMP DP  RH WIND       PRES   REMARKS
WILLISTON      FAIR      57  31  37 S5        30.12F
MINOT          FAIR      57  26  30 SW5       30.13F
MINOT AFB      PTCLDY    50  33  50 W6        30.12F
$$

NDZ018>021-031>035-040>046-300300-
SOUTHWEST NORTH DAKOTA

CITY           SKY/WX    TMP DP  RH WIND       PRES   REMARKS
BISMARCK       FAIR      53  26  35 E7        30.16F
DICKINSON      FAIR      49  17  28 S7        30.12F
GARRISON         N/A     51  23  33 S3        30.14F
HETTINGER ARPT CLEAR     50  19  29 S6        30.16F
$$

NDZ004>008-012>016-024-026-027-054-300300-
NORTHEAST NORTH DAKOTA

CITY           SKY/WX    TMP DP  RH WIND       PRES   REMARKS
GRAND FORKS    MOCLDY    54  30  40 E7        30.21S
GRND FRKS AFB  MOCLDY    53  28  39 SE6       30.21F
DEVILS LAKE    FAIR      50  32  50 SE7       30.18F
$$

NDZ022-023-025-028>030-036>039-047>053-300300-
SOUTHEAST NORTH DAKOTA

CITY           SKY/WX    TMP DP  RH WIND       PRES   REMARKS
FARGO          PTCLDY    51  23  33 NE5       30.21S
JAMESTOWN      FAIR      50  30  46 E6        30.18F
$$





USA.gov is the U.S. government's official web portal to all federal, state and local government web resources and services.